Time,TemperatureF,DewpointF,PressureIn,WindDirection,WindDirectionDegrees,WindSpeedMPH,WindSpeedGustMPH,Humidity,HourlyPrecipIn,Conditions,Clouds,dailyrainin,SoftwareType,DateUTC
2013-03-01 00:00:00,45.9,32.8,29.78,WNW,291,10.0,13.0,60,0.00,,---,0.00,VWS V14.01,2013-03-01 05:00:00,
2013-03-01 00:05:00,45.8,32.7,29.78,West,281,11.0,15.0,60,0.00,,---,0.00,VWS V14.01,2013-03-01 05:05:00,
2013-03-01 00:06:00,45.8,32.7,29.78,WNW,282,13.0,15.0,60,0.00,,---,0.00,VWS V14.01,2013-03-01 05:06:00,
2013-03-01 00:11:00,45.6,32.5,29.78,WNW,290,6.0,13.0,60,0.00,,---,0.00,VWS V14.01,2013-03-01 05:11:00,
2013-03-01 00:16:00,45.4,32.3,29.78,WNW,286,10.0,13.0,60,0.00,,---,0.00,VWS V14.01,2013-03-01 05:16:00,
2013-03-01 00:21:00,45.1,32.1,29.78,WNW,297,13.0,16.0,60,0.00,,---,0.00,VWS V14.01,2013-03-01 05:21:00,
2013-03-01 00:26:00,44.8,31.8,29.78,NW,304,6.0,12.0,60,0.00,,---,0.00,VWS V14.01,2013-03-01 05:26:00,
2013-03-01 00:31:00,44.5,31.5,29.78,WNW,301,7.0,13.0,60,0.00,,---,0.00,VWS V14.01,2013-03-01 05:31:00,
2013-03-01 00:36:00,44.2,31.2,29.78,NW,306,6.0,12.0,60,0.00,,---,0.00,VWS V14.01,2013-03-01 05:36:00,
2013-03-01 00:41:00,43.9,31.3,29.79,NW,307,2.0,10.0,61,0.00,,---,0.00,VWS V14.01,2013-03-01 05:41:00,
2013-03-01 00:46:00,43.6,31.0,29.79,NW,309,4.0,14.0,61,0.00,,---,0.00,VWS V14.01,2013-03-01 05:46:00,
2013-03-01 00:51:00,43.4,30.9,29.79,NW,308,8.0,11.0,61,0.00,,---,0.00,VWS V14.01,2013-03-01 05:51:00,
2013-03-01 00:56:00,43.2,31.1,29.79,NW,307,10.0,11.0,62,0.00,,---,0.00,VWS V14.01,2013-03-01 05:56:00,
2013-03-01 01:01:00,43.0,31.3,29.79,NW,306,5.0,12.0,63,0.00,,---,0.00,VWS V14.01,2013-03-01 06:01:00,
2013-03-01 01:06:00,42.8,31.1,29.79,WNW,303,2.0,10.0,63,0.00,,---,0.00,VWS V14.01,2013-03-01 06:06:00,
2013-03-01 01:11:00,42.6,30.9,29.80,WNW,299,4.0,9.0,63,0.00,,---,0.00,VWS V14.01,2013-03-01 06:11:00,
2013-03-01 01:16:00,42.5,30.8,29.80,WNW,300,3.0,9.0,63,0.00,,---,0.00,VWS V14.01,2013-03-01 06:16:00,
2013-03-01 01:21:00,42.5,30.8,29.80,NW,305,5.0,12.0,63,0.00,,---,0.00,VWS V14.01,2013-03-01 06:21:00,
2013-03-01 01:26:00,42.4,31.1,29.79,NW,319,3.0,8.0,64,0.00,,---,0.00,VWS V14.01,2013-03-01 06:26:00,
2013-03-01 01:31:00,42.3,31.0,29.79,NW,318,3.0,6.0,64,0.00,,---,0.00,VWS V14.01,2013-03-01 06:31:00,
2013-03-01 01:36:00,42.1,31.2,29.79,NW,306,3.0,9.0,65,0.00,,---,0.00,VWS V14.01,2013-03-01 06:36:00,
2013-03-01 01:41:00,41.9,31.0,29.79,NW,305,6.0,6.0,65,0.00,,---,0.00,VWS V14.01,2013-03-01 06:41:00,
2013-03-01 01:46:00,41.8,30.9,29.79,WNW,301,4.0,8.0,65,0.00,,---,0.00,VWS V14.01,2013-03-01 06:46:00,
2013-03-01 01:51:00,41.7,30.8,29.79,NW,304,5.0,9.0,65,0.00,,---,0.00,VWS V14.01,2013-03-01 06:51:00,
2013-03-01 01:56:00,41.7,30.8,29.79,WNW,300,3.0,11.0,65,0.00,,---,0.00,VWS V14.01,2013-03-01 06:56:00,
2013-03-01 02:01:00,41.7,31.2,29.79,WNW,292,8.0,10.0,66,0.00,,---,0.00,VWS V14.01,2013-03-01 07:01:00,
2013-03-01 02:06:00,41.6,31.1,29.79,WNW,293,5.0,9.0,66,0.00,,---,0.00,VWS V14.01,2013-03-01 07:06:00,
2013-03-01 02:11:00,41.5,31.0,29.79,WNW,294,5.0,7.0,66,0.00,,---,0.00,VWS V14.01,2013-03-01 07:11:00,
2013-03-01 02:16:00,41.5,31.0,29.79,WNW,298,3.0,8.0,66,0.00,,---,0.00,VWS V14.01,2013-03-01 07:16:00,
2013-03-01 02:21:00,41.4,30.9,29.79,WNW,292,10.0,12.0,66,0.00,,---,0.00,VWS V14.01,2013-03-01 07:21:00,
2013-03-01 02:26:00,41.3,31.2,29.79,NW,316,6.0,12.0,67,0.00,,---,0.00,VWS V14.01,2013-03-01 07:26:00,
2013-03-01 02:31:00,41.1,30.6,29.79,WNW,302,6.0,11.0,66,0.00,,---,0.00,VWS V14.01,2013-03-01 07:31:00,
2013-03-01 02:36:00,41.1,30.6,29.79,WNW,294,6.0,11.0,66,0.00,,---,0.00,VWS V14.01,2013-03-01 07:36:00,
2013-03-01 02:41:00,41.0,30.5,29.79,WNW,299,3.0,8.0,66,0.00,,---,0.00,VWS V14.01,2013-03-01 07:41:00,
2013-03-01 02:46:00,40.8,30.7,29.79,WNW,296,1.0,9.0,67,0.00,,---,0.00,VWS V14.01,2013-03-01 07:46:00,
2013-03-01 02:51:00,40.7,30.6,29.79,WNW,295,3.0,9.0,67,0.00,,---,0.00,VWS V14.01,2013-03-01 07:51:00,
2013-03-01 02:56:00,40.6,30.9,29.79,WNW,294,6.0,8.0,68,0.00,,---,0.00,VWS V14.01,2013-03-01 07:56:00,
2013-03-01 03:01:00,40.6,30.9,29.79,WNW,293,3.0,6.0,68,0.00,,---,0.00,VWS V14.01,2013-03-01 08:01:00,
2013-03-01 03:06:00,40.5,31.1,29.79,WNW,292,5.0,7.0,69,0.00,,---,0.00,VWS V14.01,2013-03-01 08:06:00,
2013-03-01 03:11:00,40.4,31.4,29.79,WNW,292,4.0,7.0,70,0.00,,---,0.00,VWS V14.01,2013-03-01 08:11:00,
2013-03-01 03:16:00,40.4,31.4,29.79,WNW,293,3.0,5.0,70,0.00,,---,0.00,VWS V14.01,2013-03-01 08:16:00,
2013-03-01 03:21:00,40.4,31.0,29.79,WNW,293,8.0,10.0,69,0.00,,---,0.00,VWS V14.01,2013-03-01 08:21:00,
2013-03-01 03:26:00,40.4,31.4,29.79,WNW,293,4.0,5.0,70,0.00,,---,0.00,VWS V14.01,2013-03-01 08:26:00,
2013-03-01 03:31:00,40.4,31.4,29.79,WNW,294,4.0,8.0,70,0.00,,---,0.00,VWS V14.01,2013-03-01 08:31:00,
2013-03-01 03:36:00,40.2,31.2,29.79,WNW,296,3.0,9.0,70,0.00,,---,0.00,VWS V14.01,2013-03-01 08:36:00,
2013-03-01 03:41:00,40.2,31.2,29.79,WNW,294,3.0,9.0,70,0.00,,---,0.00,VWS V14.01,2013-03-01 08:41:00,
2013-03-01 03:46:00,40.1,31.1,29.79,WNW,293,5.0,11.0,70,0.00,,---,0.00,VWS V14.01,2013-03-01 08:46:00,
2013-03-01 03:51:00,40.0,31.0,29.79,WNW,295,6.0,10.0,70,0.00,,---,0.00,VWS V14.01,2013-03-01 08:51:00,
2013-03-01 03:56:00,39.9,30.9,29.79,WNW,296,4.0,7.0,70,0.00,,---,0.00,VWS V14.01,2013-03-01 08:56:00,
2013-03-01 04:01:00,39.8,30.8,29.79,WNW,296,3.0,7.0,70,0.00,,---,0.00,VWS V14.01,2013-03-01 09:01:00,
2013-03-01 04:06:00,39.8,30.8,29.79,WNW,298,6.0,6.0,70,0.00,,---,0.00,VWS V14.01,2013-03-01 09:06:00,
2013-03-01 04:11:00,39.7,30.7,29.79,WNW,300,5.0,6.0,70,0.00,,---,0.00,VWS V14.01,2013-03-01 09:11:00,
2013-03-01 04:16:00,39.7,30.7,29.79,WNW,300,6.0,6.0,70,0.00,,---,0.00,VWS V14.01,2013-03-01 09:16:00,
2013-03-01 04:21:00,39.6,30.6,29.79,WNW,300,4.0,6.0,70,0.00,,---,0.00,VWS V14.01,2013-03-01 09:21:00,
2013-03-01 04:26:00,39.6,30.6,29.79,WNW,298,7.0,8.0,70,0.00,,---,0.00,VWS V14.01,2013-03-01 09:26:00,
2013-03-01 04:31:00,39.5,30.5,29.79,WNW,298,0.0,6.0,70,0.00,,---,0.00,VWS V14.01,2013-03-01 09:31:00,
2013-03-01 04:36:00,39.3,30.4,29.79,WNW,298,3.0,5.0,70,0.00,,---,0.00,VWS V14.01,2013-03-01 09:36:00,
2013-03-01 04:41:00,39.1,30.2,29.79,WNW,299,4.0,9.0,70,0.00,,---,0.00,VWS V14.01,2013-03-01 09:41:00,
2013-03-01 04:46:00,39.0,30.1,29.79,WNW,298,5.0,9.0,70,0.00,,---,0.00,VWS V14.01,2013-03-01 09:46:00,
2013-03-01 04:51:00,38.8,30.2,29.79,WNW,300,4.0,7.0,71,0.00,,---,0.00,VWS V14.01,2013-03-01 09:51:00,
2013-03-01 04:56:00,38.7,30.1,29.79,WNW,300,5.0,7.0,71,0.00,,---,0.00,VWS V14.01,2013-03-01 09:56:00,
2013-03-01 05:01:00,38.6,30.0,29.79,WNW,300,2.0,6.0,71,0.00,,---,0.00,VWS V14.01,2013-03-01 10:01:00,
2013-03-01 05:06:00,38.5,30.3,29.79,WNW,300,5.0,9.0,72,0.00,,---,0.00,VWS V14.01,2013-03-01 10:06:00,
2013-03-01 05:11:00,38.6,30.4,29.80,WNW,298,4.0,9.0,72,0.00,,---,0.00,VWS V14.01,2013-03-01 10:11:00,
2013-03-01 05:16:00,38.6,30.4,29.80,WNW,298,3.0,7.0,72,0.00,,---,0.00,VWS V14.01,2013-03-01 10:16:00,
2013-03-01 05:21:00,38.6,30.4,29.80,WNW,298,5.0,7.0,72,0.00,,---,0.00,VWS V14.01,2013-03-01 10:21:00,
2013-03-01 05:26:00,38.6,30.0,29.81,WNW,294,3.0,9.0,71,0.00,,---,0.00,VWS V14.01,2013-03-01 10:26:00,
2013-03-01 05:31:00,38.6,30.0,29.81,WNW,296,4.0,6.0,71,0.00,,---,0.00,VWS V14.01,2013-03-01 10:31:00,
2013-03-01 05:36:00,38.5,30.3,29.81,WNW,296,5.0,7.0,72,0.00,,---,0.00,VWS V14.01,2013-03-01 10:36:00,
2013-03-01 05:41:00,38.5,30.3,29.80,WNW,297,4.0,6.0,72,0.00,,---,0.00,VWS V14.01,2013-03-01 10:41:00,
2013-03-01 05:46:00,38.5,30.3,29.80,WNW,297,3.0,5.0,72,0.00,,---,0.00,VWS V14.01,2013-03-01 10:46:00,
2013-03-01 05:51:00,38.3,30.1,29.80,WNW,297,5.0,6.0,72,0.00,,---,0.00,VWS V14.01,2013-03-01 10:51:00,
2013-03-01 05:56:00,38.2,30.0,29.81,WNW,296,6.0,9.0,72,0.00,,---,0.00,VWS V14.01,2013-03-01 10:56:00,
2013-03-01 06:01:00,38.1,30.2,29.81,WNW,297,5.0,7.0,73,0.00,,---,0.00,VWS V14.01,2013-03-01 11:01:00,
2013-03-01 06:06:00,38.1,30.2,29.81,WNW,296,4.0,7.0,73,0.00,,---,0.00,VWS V14.01,2013-03-01 11:06:00,
2013-03-01 06:11:00,38.1,30.2,29.82,WNW,296,0.0,5.0,73,0.00,,---,0.00,VWS V14.01,2013-03-01 11:11:00,
2013-03-01 06:16:00,38.1,30.2,29.82,WNW,296,6.0,8.0,73,0.00,,---,0.00,VWS V14.01,2013-03-01 11:16:00,
2013-03-01 06:21:00,38.2,30.3,29.82,WNW,296,3.0,9.0,73,0.00,,---,0.00,VWS V14.01,2013-03-01 11:21:00,
2013-03-01 06:26:00,38.1,30.6,29.81,WNW,296,5.0,9.0,74,0.00,,---,0.00,VWS V14.01,2013-03-01 11:26:00,
2013-03-01 06:31:00,38.1,30.6,29.81,WNW,288,5.0,7.0,74,0.00,,---,0.00,VWS V14.01,2013-03-01 11:31:00,
2013-03-01 06:36:00,38.1,30.6,29.81,WNW,294,5.0,9.0,74,0.00,,---,0.00,VWS V14.01,2013-03-01 11:36:00,
2013-03-01 06:41:00,38.1,30.6,29.82,WNW,294,3.0,7.0,74,0.00,,---,0.00,VWS V14.01,2013-03-01 11:41:00,
2013-03-01 06:46:00,38.1,30.6,29.82,WNW,298,3.0,10.0,74,0.00,,---,0.00,VWS V14.01,2013-03-01 11:46:00,
2013-03-01 06:51:00,38.1,30.6,29.82,WNW,296,3.0,9.0,74,0.00,,---,0.00,VWS V14.01,2013-03-01 11:51:00,
2013-03-01 06:56:00,38.0,30.5,29.82,WNW,290,5.0,9.0,74,0.00,,---,0.00,VWS V14.01,2013-03-01 11:56:00,
2013-03-01 07:01:00,38.0,30.5,29.82,WNW,292,3.0,7.0,74,0.00,,---,0.00,VWS V14.01,2013-03-01 12:01:00,
2013-03-01 07:06:00,38.0,30.5,29.82,WNW,293,4.0,6.0,74,0.00,,---,0.00,VWS V14.01,2013-03-01 12:06:00,
2013-03-01 07:11:00,38.0,30.5,29.82,WNW,296,4.0,12.0,74,0.00,,---,0.00,VWS V14.01,2013-03-01 12:11:00,
2013-03-01 07:16:00,38.1,30.6,29.82,WNW,298,3.0,7.0,74,0.00,,---,0.00,VWS V14.01,2013-03-01 12:16:00,
2013-03-01 07:21:00,38.2,30.3,29.82,NW,319,4.0,10.0,73,0.00,,---,0.00,VWS V14.01,2013-03-01 12:21:00,
2013-03-01 07:26:00,38.3,30.4,29.82,NW,312,4.0,9.0,73,0.00,,---,0.00,VWS V14.01,2013-03-01 12:26:00,
2013-03-01 07:31:00,38.4,30.5,29.82,NW,308,4.0,7.0,73,0.00,,---,0.00,VWS V14.01,2013-03-01 12:31:00,
2013-03-01 07:36:00,38.5,30.6,29.82,NW,317,6.0,10.0,73,0.00,,---,0.00,VWS V14.01,2013-03-01 12:36:00,
2013-03-01 07:41:00,38.6,30.7,29.82,NW,319,0.0,10.0,73,0.00,,---,0.00,VWS V14.01,2013-03-01 12:41:00,
2013-03-01 07:46:00,38.6,30.4,29.82,NW,306,6.0,11.0,72,0.00,,---,0.00,VWS V14.01,2013-03-01 12:46:00,
2013-03-01 07:51:00,38.8,30.6,29.82,NW,309,6.0,9.0,72,0.00,,---,0.00,VWS V14.01,2013-03-01 12:51:00,
2013-03-01 07:56:00,39.0,30.8,29.83,NW,307,3.0,7.0,72,0.00,,---,0.00,VWS V14.01,2013-03-01 12:56:00,
2013-03-01 08:01:00,39.2,30.6,29.83,NW,323,7.0,11.0,71,0.00,,---,0.00,VWS V14.01,2013-03-01 13:01:00,
2013-03-01 08:06:00,39.4,30.8,29.83,NW,321,9.0,12.0,71,0.00,,---,0.00,VWS V14.01,2013-03-01 13:06:00,
2013-03-01 08:11:00,39.7,31.1,29.83,NW,313,2.0,12.0,71,0.00,,---,0.00,VWS V14.01,2013-03-01 13:11:00,
2013-03-01 08:16:00,39.9,30.9,29.83,NW,320,5.0,11.0,70,0.00,,---,0.00,VWS V14.01,2013-03-01 13:16:00,
2013-03-01 08:21:00,40.2,31.2,29.83,NNW,331,6.0,13.0,70,0.00,,---,0.00,VWS V14.01,2013-03-01 13:21:00,
2013-03-01 08:26:00,40.4,31.4,29.83,NW,313,6.0,11.0,70,0.00,,---,0.00,VWS V14.01,2013-03-01 13:26:00,
2013-03-01 08:31:00,40.4,30.7,29.83,NW,316,6.0,14.0,68,0.00,,---,0.00,VWS V14.01,2013-03-01 13:31:00,
2013-03-01 08:36:00,40.4,31.0,29.83,NNW,348,11.0,12.0,69,0.00,,---,0.00,VWS V14.01,2013-03-01 13:36:00,
2013-03-01 08:41:00,40.6,31.2,29.82,NNW,336,12.0,14.0,69,0.00,,---,0.00,VWS V14.01,2013-03-01 13:41:00,
2013-03-01 08:46:00,40.6,31.2,29.82,NW,314,7.0,15.0,69,0.00,,---,0.00,VWS V14.01,2013-03-01 13:46:00,
2013-03-01 08:51:00,41.0,31.6,29.82,NW,326,11.0,14.0,69,0.00,,---,0.00,VWS V14.01,2013-03-01 13:51:00,
2013-03-01 08:56:00,41.5,31.7,29.82,NNW,332,15.0,18.0,68,0.00,,---,0.00,VWS V14.01,2013-03-01 13:56:00,
2013-03-01 09:01:00,41.8,32.0,29.82,NNW,338,7.0,16.0,68,0.00,,---,0.00,VWS V14.01,2013-03-01 14:01:00,
2013-03-01 09:06:00,42.1,32.7,29.82,NNW,344,12.0,14.0,69,0.00,,---,0.00,VWS V14.01,2013-03-01 14:06:00,
2013-03-01 09:11:00,42.4,32.2,29.82,NNW,340,14.0,15.0,67,0.00,,---,0.00,VWS V14.01,2013-03-01 14:11:00,
2013-03-01 09:16:00,42.6,32.0,29.82,North,360,10.0,14.0,66,0.00,,---,0.00,VWS V14.01,2013-03-01 14:16:00,
2013-03-01 09:21:00,43.0,32.1,29.82,North,355,11.0,17.0,65,0.00,,---,0.00,VWS V14.01,2013-03-01 14:21:00,
2013-03-01 09:26:00,43.4,32.8,29.82,NW,321,10.0,13.0,66,0.00,,---,0.00,VWS V14.01,2013-03-01 14:26:00,
2013-03-01 09:31:00,43.9,32.9,29.82,NNW,344,8.0,11.0,65,0.00,,---,0.00,VWS V14.01,2013-03-01 14:31:00,
2013-03-01 09:36:00,44.2,33.2,29.82,NNW,331,8.0,14.0,65,0.00,,---,0.00,VWS V14.01,2013-03-01 14:36:00,
2013-03-01 09:41:00,44.5,33.1,29.81,NNW,347,7.0,13.0,64,0.00,,---,0.00,VWS V14.01,2013-03-01 14:41:00,
2013-03-01 09:46:00,44.6,32.4,29.81,NNW,336,10.0,14.0,62,0.00,,---,0.00,VWS V14.01,2013-03-01 14:46:00,
2013-03-01 09:51:00,44.8,32.2,29.81,NNW,341,10.0,13.0,61,0.00,,---,0.00,VWS V14.01,2013-03-01 14:51:00,
2013-03-01 09:56:00,45.2,32.6,29.81,NNW,347,8.0,12.0,61,0.00,,---,0.00,VWS V14.01,2013-03-01 14:56:00,
2013-03-01 10:01:00,45.4,32.3,29.81,NNW,339,4.0,12.0,60,0.00,,---,0.00,VWS V14.01,2013-03-01 15:01:00,
2013-03-01 10:06:00,45.8,33.1,29.81,NNW,346,9.0,11.0,61,0.00,,---,0.00,VWS V14.01,2013-03-01 15:06:00,
2013-03-01 10:11:00,46.1,33.0,29.80,NNW,339,4.0,9.0,60,0.00,,---,0.00,VWS V14.01,2013-03-01 15:11:00,
2013-03-01 10:16:00,46.7,33.6,29.80,NNW,340,11.0,11.0,60,0.00,,---,0.00,VWS V14.01,2013-03-01 15:16:00,
2013-03-01 10:21:00,47.0,32.6,29.80,North,355,5.0,11.0,57,0.00,,---,0.00,VWS V14.01,2013-03-01 15:21:00,
2013-03-01 10:26:00,47.6,31.8,29.81,North,355,4.0,11.0,54,0.00,,---,0.00,VWS V14.01,2013-03-01 15:26:00,
2013-03-01 10:31:00,47.9,31.6,29.81,North,355,0.0,11.0,53,0.00,,---,0.00,VWS V14.01,2013-03-01 15:31:00,
2013-03-01 10:36:00,47.9,32.1,29.81,NNW,336,8.0,10.0,54,0.00,,---,0.00,VWS V14.01,2013-03-01 15:36:00,
2013-03-01 10:41:00,47.6,31.3,29.81,NNW,332,6.0,10.0,53,0.00,,---,0.00,VWS V14.01,2013-03-01 15:41:00,
2013-03-01 10:46:00,47.9,32.1,29.81,NNW,342,6.0,9.0,54,0.00,,---,0.00,VWS V14.01,2013-03-01 15:46:00,
2013-03-01 10:51:00,48.6,31.8,29.81,NNE,15,7.0,10.0,52,0.00,,---,0.00,VWS V14.01,2013-03-01 15:51:00,
2013-03-01 10:56:00,48.7,30.9,29.81,NNE,17,3.0,6.0,50,0.00,,---,0.00,VWS V14.01,2013-03-01 15:56:00,
2013-03-01 11:01:00,48.9,31.1,29.81,North,5,3.0,8.0,50,0.00,,---,0.00,VWS V14.01,2013-03-01 16:01:00,
2013-03-01 11:06:00,49.3,31.0,29.81,North,360,4.0,7.0,49,0.00,,---,0.00,VWS V14.01,2013-03-01 16:06:00,
2013-03-01 11:11:00,49.6,31.2,29.81,North,5,3.0,7.0,49,0.00,,---,0.00,VWS V14.01,2013-03-01 16:11:00,
2013-03-01 11:16:00,50.0,30.6,29.81,North,5,4.0,7.0,47,0.00,,---,0.00,VWS V14.01,2013-03-01 16:16:00,
2013-03-01 11:21:00,49.9,30.0,29.81,North,5,0.0,2.0,46,0.00,,---,0.00,VWS V14.01,2013-03-01 16:21:00,
2013-03-01 11:26:00,49.8,29.3,29.82,North,5,0.0,0.0,45,0.00,,---,0.00,VWS V14.01,2013-03-01 16:26:00,
2013-03-01 11:31:00,49.7,29.2,29.82,WNW,300,0.0,10.0,45,0.00,,---,0.00,VWS V14.01,2013-03-01 16:31:00,
2013-03-01 11:36:00,49.5,30.6,29.82,WNW,298,5.0,5.0,48,0.00,,---,0.00,VWS V14.01,2013-03-01 16:36:00,
2013-03-01 11:41:00,49.0,31.7,29.82,West,259,9.0,13.0,51,0.00,,---,0.00,VWS V14.01,2013-03-01 16:41:00,
2013-03-01 11:46:00,48.1,30.4,29.82,WSW,258,5.0,8.0,50,0.00,,---,0.00,VWS V14.01,2013-03-01 16:46:00,
2013-03-01 11:51:00,47.9,30.7,29.82,WSW,242,7.0,10.0,51,0.00,,---,0.00,VWS V14.01,2013-03-01 16:51:00,
2013-03-01 11:56:00,47.7,31.9,29.81,SW,234,9.0,11.0,54,0.00,,---,0.00,VWS V14.01,2013-03-01 16:56:00,
2013-03-01 12:01:00,47.5,31.7,29.81,SW,226,11.0,11.0,54,0.00,,---,0.00,VWS V14.01,2013-03-01 17:01:00,
2013-03-01 12:06:00,47.5,31.7,29.81,SW,221,10.0,13.0,54,0.00,,---,0.00,VWS V14.01,2013-03-01 17:06:00,
2013-03-01 12:11:00,47.5,33.0,29.81,SW,225,10.0,12.0,57,0.00,,---,0.00,VWS V14.01,2013-03-01 17:11:00,
2013-03-01 12:16:00,47.4,33.0,29.81,SW,228,11.0,12.0,57,0.00,,---,0.00,VWS V14.01,2013-03-01 17:16:00,
2013-03-01 12:21:00,47.4,33.8,29.81,SW,229,9.0,12.0,59,0.00,,---,0.00,VWS V14.01,2013-03-01 17:21:00,
2013-03-01 12:26:00,47.3,33.3,29.80,SW,225,10.0,12.0,58,0.00,,---,0.00,VWS V14.01,2013-03-01 17:26:00,
2013-03-01 12:31:00,47.3,33.3,29.80,SW,220,10.0,12.0,58,0.00,,---,0.00,VWS V14.01,2013-03-01 17:31:00,
2013-03-01 12:36:00,47.5,34.3,29.80,SW,223,9.0,11.0,60,0.00,,---,0.00,VWS V14.01,2013-03-01 17:36:00,
2013-03-01 12:41:00,47.4,32.5,29.79,SW,219,11.0,12.0,56,0.00,,---,0.00,VWS V14.01,2013-03-01 17:41:00,
2013-03-01 12:46:00,47.8,35.0,29.79,SW,224,12.0,13.0,61,0.00,,---,0.00,VWS V14.01,2013-03-01 17:46:00,
2013-03-01 12:51:00,47.6,34.0,29.79,SW,221,13.0,13.0,59,0.00,,---,0.00,VWS V14.01,2013-03-01 17:51:00,
2013-03-01 12:56:00,47.4,33.8,29.79,SW,225,14.0,15.0,59,0.00,,---,0.00,VWS V14.01,2013-03-01 17:56:00,
2013-03-01 13:01:00,47.4,34.2,29.79,SW,223,14.0,14.0,60,0.00,,---,0.00,VWS V14.01,2013-03-01 18:01:00,
2013-03-01 13:06:00,47.7,34.5,29.79,SW,232,12.0,14.0,60,0.00,,---,0.00,VWS V14.01,2013-03-01 18:06:00,
2013-03-01 13:11:00,47.6,33.1,29.78,SW,227,17.0,17.0,57,0.00,,---,0.00,VWS V14.01,2013-03-01 18:11:00,
2013-03-01 13:16:00,47.6,34.0,29.78,SW,229,13.0,16.0,59,0.00,,---,0.00,VWS V14.01,2013-03-01 18:16:00,
2013-03-01 13:21:00,47.6,34.0,29.78,SW,223,13.0,14.0,59,0.00,,---,0.00,VWS V14.01,2013-03-01 18:21:00,
2013-03-01 13:26:00,47.7,34.1,29.78,SW,225,10.0,14.0,59,0.00,,---,0.00,VWS V14.01,2013-03-01 18:26:00,
2013-03-01 13:31:00,47.7,35.3,29.78,SW,219,13.0,13.0,62,0.00,,---,0.00,VWS V14.01,2013-03-01 18:31:00,
2013-03-01 13:36:00,47.7,35.3,29.78,SSW,211,12.0,15.0,62,0.00,,---,0.00,VWS V14.01,2013-03-01 18:36:00,
2013-03-01 13:41:00,47.7,34.5,29.77,SW,214,12.0,17.0,60,0.00,,---,0.00,VWS V14.01,2013-03-01 18:41:00,
2013-03-01 13:46:00,47.9,34.3,29.77,SW,218,17.0,17.0,59,0.00,,---,0.00,VWS V14.01,2013-03-01 18:46:00,
2013-03-01 13:51:00,47.8,34.6,29.77,SW,221,15.0,17.0,60,0.00,,---,0.00,VWS V14.01,2013-03-01 18:51:00,
2013-03-01 13:56:00,47.9,33.0,29.76,SW,226,13.0,18.0,56,0.00,,---,0.00,VWS V14.01,2013-03-01 18:56:00,
2013-03-01 14:01:00,47.9,33.0,29.76,SW,215,17.0,19.0,56,0.00,,---,0.00,VWS V14.01,2013-03-01 19:01:00,
2013-03-01 14:06:00,47.9,33.8,29.76,SW,224,16.0,17.0,58,0.00,,---,0.00,VWS V14.01,2013-03-01 19:06:00,
2013-03-01 14:11:00,48.0,33.9,29.76,SW,225,14.0,18.0,58,0.00,,---,0.00,VWS V14.01,2013-03-01 19:11:00,
2013-03-01 14:16:00,48.1,35.7,29.76,SW,222,17.0,20.0,62,0.00,,---,0.00,VWS V14.01,2013-03-01 19:16:00,
2013-03-01 14:21:00,48.1,35.7,29.76,SW,234,16.0,18.0,62,0.00,,---,0.00,VWS V14.01,2013-03-01 19:21:00,
2013-03-01 14:26:00,48.3,35.5,29.77,SW,232,12.0,16.0,61,0.00,,---,0.00,VWS V14.01,2013-03-01 19:26:00,
2013-03-01 14:31:00,48.3,34.7,29.77,SW,222,17.0,17.0,59,0.00,,---,0.00,VWS V14.01,2013-03-01 19:31:00,
2013-03-01 14:36:00,48.4,36.0,29.77,SW,229,16.0,18.0,62,0.00,,---,0.00,VWS V14.01,2013-03-01 19:36:00,
2013-03-01 14:41:00,48.4,35.6,29.76,SW,229,13.0,18.0,61,0.00,,---,0.00,VWS V14.01,2013-03-01 19:41:00,
2013-03-01 14:46:00,48.7,35.5,29.76,WSW,240,14.0,17.0,60,0.00,,---,0.00,VWS V14.01,2013-03-01 19:46:00,
2013-03-01 14:51:00,48.5,35.3,29.76,SW,227,15.0,17.0,60,0.00,,---,0.00,VWS V14.01,2013-03-01 19:51:00,
2013-03-01 14:56:00,48.6,36.2,29.76,SW,232,13.0,15.0,62,0.00,,---,0.00,VWS V14.01,2013-03-01 19:56:00,
2013-03-01 15:01:00,48.5,35.3,29.76,SW,232,14.0,17.0,60,0.00,,---,0.00,VWS V14.01,2013-03-01 20:01:00,
2013-03-01 15:06:00,48.7,36.7,29.76,WSW,242,15.0,18.0,63,0.00,,---,0.00,VWS V14.01,2013-03-01 20:06:00,
2013-03-01 15:11:00,48.7,36.3,29.76,SW,233,13.0,17.0,62,0.00,,---,0.00,VWS V14.01,2013-03-01 20:11:00,
2013-03-01 15:16:00,48.3,34.7,29.76,WSW,237,14.0,19.0,59,0.00,,---,0.00,VWS V14.01,2013-03-01 20:16:00,
2013-03-01 15:21:00,48.5,36.5,29.76,SW,236,15.0,19.0,63,0.00,,---,0.00,VWS V14.01,2013-03-01 20:21:00,
2013-03-01 15:26:00,48.3,35.9,29.76,SW,234,17.0,20.0,62,0.00,,---,0.00,VWS V14.01,2013-03-01 20:26:00,
2013-03-01 15:31:00,48.4,36.4,29.76,SW,232,16.0,21.0,63,0.00,,---,0.00,VWS V14.01,2013-03-01 20:31:00,
2013-03-01 15:35:00,48.4,36.4,29.76,WSW,240,12.0,17.0,63,0.00,,---,0.00,VWS V14.01,2013-03-01 20:35:00,
2013-03-01 15:41:00,48.5,36.5,29.76,WSW,246,15.0,17.0,63,0.00,,---,0.00,VWS V14.01,2013-03-01 20:41:00,
2013-03-01 15:46:00,48.5,36.9,29.76,WSW,244,16.0,17.0,64,0.00,,---,0.00,VWS V14.01,2013-03-01 20:46:00,
2013-03-01 15:50:00,48.5,36.1,29.76,WSW,242,15.0,17.0,62,0.00,,---,0.00,VWS V14.01,2013-03-01 20:50:00,
2013-03-01 15:55:00,48.7,37.5,29.76,WSW,242,13.0,18.0,65,0.00,,---,0.00,VWS V14.01,2013-03-01 20:55:00,
2013-03-01 16:00:00,48.5,36.1,29.76,WSW,244,13.0,17.0,62,0.00,,---,0.00,VWS V14.01,2013-03-01 21:00:00,
2013-03-01 16:05:00,48.7,37.5,29.76,WSW,243,16.0,17.0,65,0.00,,---,0.00,VWS V14.01,2013-03-01 21:05:00,
2013-03-01 16:10:00,48.7,37.9,29.76,WSW,246,13.0,17.0,66,0.00,,---,0.00,VWS V14.01,2013-03-01 21:10:00,
2013-03-01 16:15:00,48.7,37.5,29.76,WSW,240,15.0,17.0,65,0.00,,---,0.00,VWS V14.01,2013-03-01 21:15:00,
2013-03-01 16:20:00,48.9,38.4,29.76,WSW,238,16.0,18.0,67,0.00,,---,0.00,VWS V14.01,2013-03-01 21:20:00,
2013-03-01 16:25:00,48.9,37.7,29.77,WSW,244,17.0,18.0,65,0.00,,---,0.00,VWS V14.01,2013-03-01 21:25:00,
2013-03-01 16:30:00,49.0,38.2,29.77,WSW,242,16.0,18.0,66,0.00,,---,0.00,VWS V14.01,2013-03-01 21:30:00,
2013-03-01 16:35:00,49.0,38.2,29.77,WSW,239,18.0,19.0,66,0.00,,---,0.00,VWS V14.01,2013-03-01 21:35:00,
2013-03-01 16:40:00,48.8,37.6,29.77,WSW,242,16.0,17.0,65,0.00,,---,0.00,VWS V14.01,2013-03-01 21:40:00,
2013-03-01 16:45:00,49.0,38.2,29.77,WSW,245,15.0,18.0,66,0.00,,---,0.00,VWS V14.01,2013-03-01 21:45:00,
2013-03-01 16:51:00,49.1,38.2,29.77,WSW,244,16.0,18.0,66,0.00,,---,0.00,VWS V14.01,2013-03-01 21:51:00,
2013-03-01 16:56:00,49.0,38.5,29.77,WSW,249,16.0,19.0,67,0.00,,---,0.00,VWS V14.01,2013-03-01 21:56:00,
2013-03-01 17:01:00,49.0,37.4,29.77,WSW,246,14.0,17.0,64,0.00,,---,0.00,VWS V14.01,2013-03-01 22:01:00,
2013-03-01 17:06:00,49.1,37.9,29.77,WSW,249,14.0,16.0,65,0.00,,---,0.00,VWS V14.01,2013-03-01 22:06:00,
2013-03-01 17:10:00,49.2,39.1,29.77,WSW,248,12.0,14.0,68,0.00,,---,0.00,VWS V14.01,2013-03-01 22:10:00,
2013-03-01 17:15:00,49.1,38.2,29.77,WSW,245,15.0,15.0,66,0.00,,---,0.00,VWS V14.01,2013-03-01 22:15:00,
2013-03-01 17:20:00,49.2,39.1,29.77,WSW,246,14.0,15.0,68,0.00,,---,0.00,VWS V14.01,2013-03-01 22:20:00,
2013-03-01 17:25:00,49.3,39.2,29.78,WSW,249,15.0,16.0,68,0.00,,---,0.00,VWS V14.01,2013-03-01 22:25:00,
2013-03-01 17:30:00,49.4,39.7,29.78,WSW,248,13.0,16.0,69,0.00,,---,0.00,VWS V14.01,2013-03-01 22:30:00,
2013-03-01 17:35:00,49.5,39.8,29.78,WSW,252,12.0,16.0,69,0.00,,---,0.00,VWS V14.01,2013-03-01 22:35:00,
2013-03-01 17:40:00,49.7,40.0,29.78,WSW,248,14.0,15.0,69,0.00,,---,0.00,VWS V14.01,2013-03-01 22:40:00,
2013-03-01 17:45:00,49.6,39.9,29.78,WSW,255,15.0,17.0,69,0.00,,---,0.00,VWS V14.01,2013-03-01 22:45:00,
2013-03-01 17:50:00,49.7,40.3,29.78,WSW,244,16.0,17.0,70,0.00,,---,0.00,VWS V14.01,2013-03-01 22:50:00,
2013-03-01 17:55:00,49.6,39.5,29.78,WSW,250,14.0,18.0,68,0.00,,---,0.00,VWS V14.01,2013-03-01 22:55:00,
2013-03-01 18:00:00,49.7,39.6,29.78,WSW,250,15.0,16.0,68,0.00,,---,0.00,VWS V14.01,2013-03-01 23:00:00,
2013-03-01 18:05:00,49.8,40.8,29.78,WSW,249,14.0,17.0,71,0.00,,---,0.00,VWS V14.01,2013-03-01 23:05:00,
2013-03-01 18:10:00,50.0,40.6,29.79,WSW,248,14.0,16.0,70,0.00,,---,0.00,VWS V14.01,2013-03-01 23:10:00,
2013-03-01 18:15:00,49.9,40.2,29.79,WSW,252,13.0,16.0,69,0.00,,---,0.00,VWS V14.01,2013-03-01 23:15:00,
2013-03-01 18:20:00,49.9,39.4,29.79,West,263,11.0,13.0,67,0.00,,---,0.00,VWS V14.01,2013-03-01 23:20:00,
2013-03-01 18:25:00,50.0,39.5,29.79,West,261,15.0,16.0,67,0.00,,---,0.00,VWS V14.01,2013-03-01 23:25:00,
2013-03-01 18:30:00,49.8,37.7,29.79,West,270,12.0,13.0,63,0.00,,---,0.00,VWS V14.01,2013-03-01 23:30:00,
2013-03-01 18:35:00,49.7,37.6,29.79,West,271,13.0,13.0,63,0.00,,---,0.00,VWS V14.01,2013-03-01 23:35:00,
2013-03-01 18:40:00,49.7,38.0,29.79,West,269,9.0,11.0,64,0.00,,---,0.00,VWS V14.01,2013-03-01 23:40:00,
2013-03-01 18:45:00,49.5,37.8,29.79,West,273,7.0,9.0,64,0.00,,---,0.00,VWS V14.01,2013-03-01 23:45:00,
2013-03-01 18:50:00,49.4,37.3,29.79,West,273,4.0,6.0,63,0.00,,---,0.00,VWS V14.01,2013-03-01 23:50:00,
2013-03-01 18:55:00,49.4,36.5,29.80,West,277,3.0,9.0,61,0.00,,---,0.00,VWS V14.01,2013-03-01 23:55:00,
2013-03-01 19:00:00,49.4,36.1,29.80,West,277,3.0,8.0,60,0.00,,---,0.00,VWS V14.01,2013-03-02 00:00:00,
2013-03-01 19:05:00,49.4,36.1,29.80,West,279,5.0,7.0,60,0.00,,---,0.00,VWS V14.01,2013-03-02 00:05:00,
2013-03-01 19:10:00,49.4,36.5,29.81,West,280,5.0,6.0,61,0.00,,---,0.00,VWS V14.01,2013-03-02 00:10:00,
2013-03-01 19:15:00,49.4,36.5,29.81,West,281,3.0,6.0,61,0.00,,---,0.00,VWS V14.01,2013-03-02 00:15:00,
2013-03-01 19:20:00,49.3,36.0,29.81,WNW,282,1.0,6.0,60,0.00,,---,0.00,VWS V14.01,2013-03-02 00:20:00,
2013-03-01 19:25:00,49.2,35.5,29.81,WNW,286,1.0,7.0,59,0.00,,---,0.00,VWS V14.01,2013-03-02 00:25:00,
2013-03-01 19:30:00,49.2,35.1,29.81,WNW,291,2.0,7.0,58,0.00,,---,0.00,VWS V14.01,2013-03-02 00:30:00,
2013-03-01 19:35:00,49.1,35.4,29.81,WNW,294,2.0,6.0,59,0.00,,---,0.00,VWS V14.01,2013-03-02 00:35:00,
2013-03-01 19:40:00,48.9,35.2,29.82,NW,308,6.0,11.0,59,0.00,,---,0.00,VWS V14.01,2013-03-02 00:40:00,
2013-03-01 19:45:00,48.7,35.0,29.82,NW,311,4.0,7.0,59,0.00,,---,0.00,VWS V14.01,2013-03-02 00:45:00,
2013-03-01 19:50:00,48.6,35.4,29.82,NW,319,8.0,10.0,60,0.00,,---,0.00,VWS V14.01,2013-03-02 00:50:00,
2013-03-01 19:55:00,48.4,35.2,29.82,NW,317,7.0,10.0,60,0.00,,---,0.00,VWS V14.01,2013-03-02 00:55:00,
2013-03-01 20:00:00,48.3,34.2,29.82,NW,317,3.0,13.0,58,0.00,,---,0.00,VWS V14.01,2013-03-02 01:00:00,
2013-03-01 20:05:00,48.3,34.2,29.82,NW,313,4.0,10.0,58,0.00,,---,0.00,VWS V14.01,2013-03-02 01:05:00,
2013-03-01 20:10:00,48.2,34.1,29.82,NW,321,9.0,9.0,58,0.00,,---,0.00,VWS V14.01,2013-03-02 01:10:00,
2013-03-01 20:15:00,48.1,34.0,29.82,NW,317,1.0,7.0,58,0.00,,---,0.00,VWS V14.01,2013-03-02 01:15:00,
2013-03-01 20:20:00,47.9,33.8,29.82,NW,317,3.0,8.0,58,0.00,,---,0.00,VWS V14.01,2013-03-02 01:20:00,
2013-03-01 20:25:00,47.9,33.8,29.83,NW,318,2.0,9.0,58,0.00,,---,0.00,VWS V14.01,2013-03-02 01:25:00,
2013-03-01 20:30:00,47.8,33.8,29.83,NW,323,4.0,7.0,58,0.00,,---,0.00,VWS V14.01,2013-03-02 01:30:00,
2013-03-01 20:35:00,47.6,34.0,29.83,NW,323,3.0,9.0,59,0.00,,---,0.00,VWS V14.01,2013-03-02 01:35:00,
2013-03-01 20:40:00,47.4,34.2,29.84,NW,326,4.0,6.0,60,0.00,,---,0.00,VWS V14.01,2013-03-02 01:40:00,
2013-03-01 20:45:00,47.3,34.5,29.84,NNW,338,4.0,10.0,61,0.00,,---,0.00,VWS V14.01,2013-03-02 01:45:00,
2013-03-01 20:50:00,47.3,35.0,29.84,NNW,346,4.0,11.0,62,0.00,,---,0.00,VWS V14.01,2013-03-02 01:50:00,
2013-03-01 20:55:00,47.2,35.3,29.83,NNW,348,4.0,11.0,63,0.00,,---,0.00,VWS V14.01,2013-03-02 01:55:00,
2013-03-01 21:00:00,47.1,35.2,29.83,NNW,346,5.0,10.0,63,0.00,,---,0.00,VWS V14.01,2013-03-02 02:00:00,
2013-03-01 21:05:00,47.0,35.1,29.83,NNW,344,5.0,10.0,63,0.00,,---,0.00,VWS V14.01,2013-03-02 02:05:00,
2013-03-01 21:10:00,47.0,34.7,29.84,NNW,347,7.0,10.0,62,0.00,,---,0.00,VWS V14.01,2013-03-02 02:10:00,
2013-03-01 21:15:00,47.0,34.7,29.84,NNW,348,9.0,11.0,62,0.00,,---,0.00,VWS V14.01,2013-03-02 02:15:00,
2013-03-01 21:20:00,47.0,34.7,29.84,NNW,346,4.0,7.0,62,0.00,,---,0.00,VWS V14.01,2013-03-02 02:20:00,
2013-03-01 21:25:00,46.9,34.6,29.84,NNW,343,6.0,8.0,62,0.00,,---,0.00,VWS V14.01,2013-03-02 02:25:00,
2013-03-01 21:30:00,46.8,34.5,29.84,NNW,344,5.0,7.0,62,0.00,,---,0.00,VWS V14.01,2013-03-02 02:30:00,
2013-03-01 21:35:00,46.8,34.1,29.84,NNW,347,5.0,10.0,61,0.00,,---,0.00,VWS V14.01,2013-03-02 02:35:00,
2013-03-01 21:40:00,46.8,34.5,29.85,NNW,348,5.0,10.0,62,0.00,,---,0.00,VWS V14.01,2013-03-02 02:40:00,
2013-03-01 21:45:00,46.7,33.6,29.85,NNW,342,10.0,10.0,60,0.00,,---,0.00,VWS V14.01,2013-03-02 02:45:00,
2013-03-01 21:50:00,46.7,34.4,29.85,NNW,342,9.0,9.0,62,0.00,,---,0.00,VWS V14.01,2013-03-02 02:50:00,
2013-03-01 21:55:00,46.7,34.4,29.85,NNW,345,4.0,9.0,62,0.00,,---,0.00,VWS V14.01,2013-03-02 02:55:00,
2013-03-01 22:00:00,46.7,34.8,29.85,NNW,344,3.0,6.0,63,0.00,,---,0.00,VWS V14.01,2013-03-02 03:00:00,
2013-03-01 22:05:00,46.7,34.4,29.85,NNW,343,6.0,8.0,62,0.00,,---,0.00,VWS V14.01,2013-03-02 03:05:00,
2013-03-01 22:10:00,46.6,34.3,29.85,NNW,342,6.0,7.0,62,0.00,,---,0.00,VWS V14.01,2013-03-02 03:10:00,
2013-03-01 22:15:00,46.6,33.9,29.85,NNW,342,4.0,9.0,61,0.00,,---,0.00,VWS V14.01,2013-03-02 03:15:00,
2013-03-01 22:20:00,46.5,33.8,29.85,NNW,343,5.0,7.0,61,0.00,,---,0.00,VWS V14.01,2013-03-02 03:20:00,
2013-03-01 22:25:00,46.5,34.2,29.85,NNW,343,2.0,6.0,62,0.00,,---,0.00,VWS V14.01,2013-03-02 03:25:00,
2013-03-01 22:30:00,46.4,34.1,29.85,NNW,344,1.0,4.0,62,0.00,,---,0.00,VWS V14.01,2013-03-02 03:30:00,
2013-03-01 22:35:00,46.4,34.1,29.85,NNW,344,0.0,5.0,62,0.00,,---,0.00,VWS V14.01,2013-03-02 03:35:00,
2013-03-01 22:40:00,46.3,34.4,29.85,NNW,344,5.0,7.0,63,0.00,,---,0.00,VWS V14.01,2013-03-02 03:40:00,
2013-03-01 22:45:00,46.3,34.0,29.85,NNW,343,7.0,8.0,62,0.00,,---,0.00,VWS V14.01,2013-03-02 03:45:00,
2013-03-01 22:50:00,46.2,33.9,29.85,NNW,341,2.0,8.0,62,0.00,,---,0.00,VWS V14.01,2013-03-02 03:50:00,
2013-03-01 22:55:00,46.1,33.8,29.85,NNW,341,3.0,6.0,62,0.00,,---,0.00,VWS V14.01,2013-03-02 03:55:00,
2013-03-01 23:00:00,46.1,33.8,29.85,NNW,341,4.0,7.0,62,0.00,,---,0.00,VWS V14.01,2013-03-02 04:00:00,
2013-03-01 23:05:00,46.0,34.1,29.85,NNW,340,2.0,7.0,63,0.00,,---,0.00,VWS V14.01,2013-03-02 04:05:00,
2013-03-01 23:10:00,45.9,34.0,29.84,NNW,340,0.0,0.0,63,0.00,,---,0.00,VWS V14.01,2013-03-02 04:10:00,
2013-03-01 23:15:00,45.7,33.8,29.84,NNW,340,0.0,0.0,63,0.00,,---,0.00,VWS V14.01,2013-03-02 04:15:00,
2013-03-01 23:20:00,45.6,34.1,29.84,NNW,340,0.0,3.0,64,0.00,,---,0.00,VWS V14.01,2013-03-02 04:20:00,
2013-03-01 23:25:00,45.5,34.0,29.84,NNW,340,0.0,4.0,64,0.00,,---,0.00,VWS V14.01,2013-03-02 04:25:00,
2013-03-01 23:30:00,45.4,34.0,29.84,NNW,340,3.0,3.0,64,0.00,,---,0.00,VWS V14.01,2013-03-02 04:30:00,
2013-03-01 23:35:00,45.3,33.5,29.84,NNW,340,0.0,0.0,63,0.00,,---,0.00,VWS V14.01,2013-03-02 04:35:00,
2013-03-01 23:40:00,45.2,33.8,29.85,NNW,340,0.0,0.0,64,0.00,,---,0.00,VWS V14.01,2013-03-02 04:40:00,
2013-03-01 23:45:00,45.1,33.7,29.85,NNW,340,0.0,0.0,64,0.00,,---,0.00,VWS V14.01,2013-03-02 04:45:00,
2013-03-01 23:50:00,45.1,33.3,29.85,NNW,340,0.0,0.0,63,0.00,,---,0.00,VWS V14.01,2013-03-02 04:50:00,
2013-03-01 23:55:00,45.0,33.6,29.85,NNW,340,0.0,0.0,64,0.00,,---,0.00,VWS V14.01,2013-03-02 04:55:00,